This is the latest recevied weather packets stored in our database for station/object IR9AK-10. If no packets are shown the sender has not sent any weather packets the latest 10 day(s).
| Time | Temp. | Humidity | Pressure | Rain* | Wind** | Luminosity | Snow |
|---|---|---|---|---|---|---|---|
| 1787899293 | 42.78° C | 20% | 1061.9 hPa | - | - | - | - |
| 1787898693 | 42.78° C | 21% | 1061.9 hPa | - | - | - | - |
| 1787898095 | 42.22° C | 20% | 1061.7 hPa | - | - | - | - |
| 1787897496 | 42.22° C | 21% | 1061.7 hPa | - | - | - | - |
| 1787896898 | 42.22° C | 24% | 1061.8 hPa | - | - | - | - |
| 1787896305 | 42.22° C | 25% | 1061.8 hPa | - | - | - | - |
| 1787895698 | 42.22° C | 28% | 1061.8 hPa | - | - | - | - |
| 1787895099 | 41.67° C | 29% | 1061.8 hPa | - | - | - | - |
| 1787894500 | 42.22° C | 27% | 1061.6 hPa | - | - | - | - |
| 1787893902 | 42.22° C | 19% | 1061.4 hPa | - | - | - | - |
| 1787893302 | 41.67° C | 21% | 1061.3 hPa | - | - | - | - |
| 1787892703 | 41.67° C | 18% | 1061.2 hPa | - | - | - | - |
| 1787892103 | 41.67° C | 18% | 1061 hPa | - | - | - | - |
| 1787891504 | 41.67° C | 18% | 1060.9 hPa | - | - | - | - |
| 1787890904 | 42.22° C | 18% | 1060.9 hPa | - | - | - | - |
| 1787890305 | 41.67° C | 18% | 1060.7 hPa | - | - | - | - |
| 1787889706 | 42.22° C | 18% | 1060.4 hPa | - | - | - | - |
| 1787889107 | 41.67° C | 18% | 1060.4 hPa | - | - | - | - |
| 1787888509 | 41.67° C | 18% | 1060.5 hPa | - | - | - | - |
| 1787887910 | 41.67° C | 18% | 1060.6 hPa | - | - | - | - |
| 1787887312 | 41.67° C | 18% | 1060.7 hPa | - | - | - | - |
| 1787886714 | 41.67° C | 18% | 1060.7 hPa | - | - | - | - |
| 1787886115 | 41.67° C | 18% | 1060.7 hPa | - | - | - | - |
| 1787885517 | 42.22° C | 18% | 1060.8 hPa | - | - | - | - |
| 1787884919 | 41.67° C | 18% | 1060.9 hPa | - | - | - | - |
* Rain since midnight (hover to see other rain measurements)
** Current wind speed in m/s (hover to see current wind gust speed)